This is the latest recevied weather packets stored in our database for station/object OK2ILA-3. If no packets are shown the sender has not sent any weather packets the latest 10 day(s).
| Time | Temp. | Humidity | Pressure | Rain* | Wind** | Luminosity | Snow |
|---|---|---|---|---|---|---|---|
| 1777839383 | 13.33° C | 3% | 1641.8 hPa | 0 mm | - | - | - |
| 1777838777 | 12.78° C | 51% | 0.1 hPa | 0 mm | - | - | - |
| 1777838440 | 13.33° C | 32% | 0.1 hPa | 0 mm | - | - | - |
| 1777838171 | 13.33° C | 32% | 0.1 hPa | 0 mm | - | - | - |
| 1777837564 | 13.33° C | 12% | 1536 hPa | 0 mm | - | - | - |
| 1777836353 | 13.89° C | 95% | 1536 hPa | 0 mm | - | - | - |
| 1777835750 | 13.89° C | 11% | 4352 hPa | 0 mm | - | - | - |
| 1777833339 | 14.44° C | 51% | 4352 hPa | 0 mm | - | - | - |
| 1777832728 | 14.44° C | 10% | 4352 hPa | 0 mm | - | - | - |
| 1777832120 | 14.44° C | 77% | 4608.2 hPa | 0 mm | - | - | - |
| 1777830910 | 15.56° C | 3% | 4608.2 hPa | 0 mm | - | - | - |
| 1777830907 | 15.56° C | 3% | 4608.2 hPa | 0 mm | - | - | - |
| 1777830348 | 16.11° C | 12% | 4608.2 hPa | 0 mm | - | - | - |
| 1777830300 | 16.11° C | 12% | 4608.2 hPa | 0 mm | - | - | - |
| 1777829697 | 16.67° C | 17% | 4608.2 hPa | 0 mm | - | - | - |
| 1777829085 | 16.67° C | 51% | 3123.4 hPa | 0 mm | - | - | - |
| 1777828479 | 17.22° C | 100% | 3123.4 hPa | 0 mm | - | - | - |
| 1777827872 | 17.22° C | 51% | 176 hPa | 0 mm | - | - | - |
| 1777827261 | 17.78° C | 95% | 3353.8 hPa | 0 mm | - | - | - |
| 1777826654 | 18.33° C | 100% | 4096.3 hPa | 0 mm | - | - | - |
| 1777826049 | 18.33° C | 55% | 4096.3 hPa | 0 mm | - | - | - |
| 1777825442 | 18.33° C | 28% | 0 hPa | 0 mm | - | - | - |
| 1777824836 | 18.89° C | 100% | 0 hPa | 0 mm | - | - | - |
| 1777824229 | 18.89° C | 100% | 0 hPa | 0 mm | - | - | - |
| 1777823623 | 18.89° C | 100% | 14.1 hPa | 0 mm | - | - | - |
* Rain latest 24 hours (hover to see other rain measurements)
** Current wind speed in m/s (hover to see current wind gust speed)